Orbital Elements at Epoch 2459200.5 (2020-Dec-17.0) TDB
Reference: JPL 18 (heliocentric ecliptic J2000)
Element | Value | Uncertainty (1-sigma) | Units |
e | .2717331451923888 | 3.426e-08 | |
a | 3.08795084085822 | 2.2194e-08 | au |
q | 2.248852246672334 | 1.1037e-07 | au |
i | 5.646790365153285 | 5.0146e-06 | deg |
node | 156.6506836663987 | 4.0037e-05 | deg |
peri | 252.4067992730507 | 4.154e-05 | deg |
M | 311.4865563410621 | 1.3144e-05 | deg |
tp | 2459467.593670550009 (2021-Sep-10.09367055) | 7.4184e-05 | TDB |
period | 1982.001567936279 5.43 | 2.1368e-05 5.85e-08 | d yr |
n | .1816345687227902 | 1.9582e-09 | deg/d |
Q | 3.927049435044106 | 2.8225e-08 | au |
|
| | Orbit Determination Parameters
Additional Information
|